Regional Weather Roundup
Issued by NWS

Home | Current Version | Previous Version | Graphics & Text | Print | Product List | Glossary On
Versions: 1 2 3 4 5 6 7 8 9 10 11 12 13 14 15 16 17 18 19 20 21 22 23 24 25 26 27 28 29 30 31 32 33 34 35 36 37 38 39 40 41 42 43 44 45 46 47 48 49 50
000
ASUS43 KMKX 190310
RWRWI

WISCONSIN REGIONAL WEATHER ROUNDUP
NATIONAL WEATHER SERVICE MILWAUKEE/SULLIVAN WI
900 PM CST THU JAN 18 2018

NOTE: "FAIR" INDICATES FEW OR NO CLOUDS BELOW 12,000 FEET WITH NO
SIGNIFICANT WEATHER AND/OR OBSTRUCTIONS TO VISIBILITY.

WIZ001-002-006>008-014>016-023>028-190400-
NORTHWEST WISCONSIN

CITY           SKY/WX    TMP DP  RH WIND       PRES   REMARKS
SUPERIOR ARPT  FAIR      27  25  92 SW5       29.72R WCI  21
ASHLAND        FAIR      20  19  96 S5        29.72F WCI  13
HAYWARD        FAIR      20  16  84 CALM      29.72F
SIREN          FAIR      20  18  90 CALM      29.73F
CUMBERLAND     FAIR      23  19  86 SW6       29.74S WCI  16
RICE LAKE      FAIR      24  21  87 CALM      29.76S
CHETEK         FAIR      21  19  93 CALM      29.75F
LADYSMITH      FAIR      26  21  81 S3        29.76S
EAU CLAIRE     FAIR      27  22  81 S8        29.78S WCI  19
MENOMONIE      FAIR      27  22  82 SE3       29.78S
NEW RICHMOND   FAIR      27  22  82 S6        29.76S WCI  21
OSCEOLA        FAIR      28  23  83 S7        29.78S WCI  20
$$

WIZ003>005-009-010-017-018-190400-
NORTH CENTRAL WISCONSIN

CITY           SKY/WX    TMP DP  RH WIND       PRES   REMARKS
MANITOWISH WTR FAIR      16  16 100 CALM      29.70S
ARBOR VITAE    FAIR      19  17  93 CALM      29.71F
WOODRUFF       FAIR      19  17  93 CALM      29.71F
RHINELANDER    FAIR      23  19  85 SW3       29.72F
EAGLE RIVER    FOG       15  15  98 CALM      29.71F VSB 3/4
LAND O LAKES   CLOUDY    21  20  96 CALM      29.72F FOG
PHILLIPS       FAIR      19  18  97 CALM      29.71F
TOMAHAWK       FAIR      21  17  86 CALM      29.74F
MEDFORD        FAIR      27  20  77 SW7       29.75S WCI  19
MERRILL        FAIR      19  17  90 CALM      29.77S
$$

WIZ029-030-035-036-043>047-190400-
CENTRAL WISCONSIN

CITY           SKY/WX    TMP DP  RH WIND       PRES   REMARKS
WAUSAU         FAIR      28  20  71 SW6       29.76R WCI  22
MOSINEE        MOCLDY    27  21  80 SW12      29.78S WCI  16
MARSHFIELD     FAIR      28  21  75 SW10      29.77F WCI  19
STEVENS POINT  FAIR      26  19  77 SW8       29.81S WCI  17
WAUPACA        FAIR      27  19  71 S5        29.82S WCI  21
WAUTOMA        FAIR      27  19  72 SW6       29.85  WCI  20
WISC RAPIDS    FAIR      27  18  69 SW8       29.82S WCI  19
CAMP DOUGLAS   FAIR      30  20  66 SW7       29.83S WCI  23
$$

WIZ011>013-019>022-031-037>040-048>050-190400-
NORTHEAST WISCONSIN

CITY           SKY/WX    TMP DP  RH WIND       PRES   REMARKS
ANTIGO         FAIR      20  16  85 SW3       29.76S
SHAWANO        FAIR      29  20  70 CALM      29.80S
OCONTO         FAIR      28  20  71 SW7       29.80F WCI  21
STURGEON BAY   FAIR      26  20  77 SW12      29.81S WCI  16
GREEN BAY      FAIR      26  18  71 S7        29.82S WCI  18
MANITOWOC      FAIR      30  20  66 SW7       29.84R WCI  23
APPLETON       PTCLDY    27  18  69 SW13      29.80F WCI  16
CLINTONVILLE   FAIR      27  19  74 SW5       29.81S WCI  21
OSHKOSH        FAIR      27  19  72 SW10      29.84S WCI  17
$$

WIZ032>034-041-042-053>061-190400-
SOUTHWEST WISCONSIN

CITY           SKY/WX    TMP DP  RH WIND       PRES   REMARKS
LA CROSSE      FAIR      30  21  69 S12       29.85F WCI  20
SPARTA         FAIR      31  22  70 S5        29.85F WCI  26
VIROQUA        FAIR      27  21  78 SW10      29.85F WCI  18
BOSCOBEL       FAIR      27  18  69 SW7       29.91F WCI  19
PRAIRIE DU CHI FAIR      30  18  62 S5        29.91F WCI  25
PLATTEVILLE    FAIR      24  19  81 S9        29.93S WCI  14
$$

WIZ056-057-062-063-064-067-068-190400-
SOUTH CENTRAL WISCONSIN

CITY           SKY/WX    TMP DP  RH WIND       PRES   REMARKS
REEDSBURG      FAIR      29  19  67 SW7       29.87F WCI  22
BARABOO/DELLS  FAIR      29  19  65 SW9G18    29.87R WCI  20
LONE ROCK      FAIR      19  14  81 CALM      29.91F
MINERAL POINT  FAIR      28  23  80 SW9       29.90S WCI  20
MADISON        FAIR      28  19  69 SW8       29.91S WCI  20
MIDDLETON      FAIR      30  20  68 SW8G17    29.90S WCI  22
WATERTOWN      NOT AVBL
MONROE         FAIR      30  21  69 SW20      29.91S WCI  18
JANESVILLE     CLEAR     27  19  74 SW5       29.94S WCI  21
$$

WIZ051-052-058>065-066-070>072-190400-
SOUTHEAST WISCONSIN

CITY           SKY/WX    TMP DP  RH WIND       PRES   REMARKS
MILWAUKEE      MOCLDY    30  20  66 SW12G21   29.91S WCI  20
WAUKESHA       CLEAR     27  18  69 SW12G18   29.91F WCI  16
MILWAUKEE/TIMM CLEAR     28  18  64 SW15      29.91S WCI  17
RACINE         FAIR      30  20  66 W16G26    29.93S WCI  19
BURLINGTON     FAIR      28  19  70 SW13      29.93S WCI  17
KENOSHA        FAIR      31  19  61 SW20G30   29.92S WCI  19
FOND DU LAC    FAIR      27  17  66 SW14G23   29.85F WCI  16
SHEBOYGAN      FAIR      28  19  69 W13       29.85S WCI  17
WEST BEND      FAIR      28  19  69 SW14G20   29.87F WCI  17
JUNEAU         FAIR      25  18  76 SW12      29.89F WCI  14
$$

LSZ147-162-190400-
LAKE SUPERIOR

STATION/POSITION TIME  TEMP    WIND        PRES    WAVE
                       AIR SEA DIR/SP/G            HT/PER
                 (UTC) (F)     (DEG/KT/KT) (MB)    (FT/S)
DEVILS ISLAND    0300   32     230/  7/  8 1006.8F
SAXON HARBOR     0240   25     200/  5/  6 1005.8F
$$

LMZ867-665-643>646-190400-
LAKE MICHIGAN

STATION/POSITION TIME  TEMP    WIND        PRES    WAVE
                       AIR SEA DIR/SP/G            HT/PER
                 (UTC) (F)     (DEG/KT/KT) (MB)    (FT/S)
NORTHPORT PIER   0240   32     220/ 17/ 29 1008.8F
KEWAUNEE LAKESHO 0248   29     250/  6/ 10 1009.2F
SHEBOYGAN LAKESH 0300   30     240/ 14/ 17 1011.6F
PORT WASHINGTON  0240   30     240/ 10/ 15 1012.9F
MILWAUKEE LAKESH 0250   30     250/ 17/ 20   N/A
KENOSHA   LAKESH 0300   31     250/ 14/ 23 1013.9
$$

TC  - TEMPERATURE IN CELSIUS
VSB - VISIBILITY IN STATUTE MILES
WCI - WIND CHILL INDEX
HX  - HEAT INDEX





USA.gov is the U.S. government's official web portal to all federal, state and local government web resources and services.